Regional Weather Roundup
Issued by NWS

Home | Current Version | Previous Version | Text Only | Print | Product List | Glossary Off
Versions: 1 2 3 4 5 6 7 8 9 10 11 12 13 14 15 16 17 18 19 20 21 22 23 24 25 26 27 28 29 30 31 32 33 34 35 36 37 38 39 40 41 42 43 44 45 46 47 48 49 50

000
ASUS43 KLMK 231502
RWRKY
KENTUCKY REGIONAL WEATHER ROUNDUP
NATIONAL WEATHER SERVICE LOUISVILLE KY
1100 AM EDT WED JUL 23 2014

NOTE "FAIR" INDICATES FEW OR NO CLOUDS BELOW 12,000 FEET
WITH NO SIGNIFICANT WEATHER AND/OR OBSTRUCTIONS TO VISIBILITY.

KYZ001>023-026-027-061>063-070>075-231600-
WESTERN AND SOUTH CENTRAL KENTUCKY

CITY           SKY/WX    TMP DP  RH WIND       PRES   REMARKS
PADUCAH        PTSUNNY   82  71  69 NW3       30.07R
HENDERSON      CLOUDY    72  64  78 W8        30.03F
OWENSBORO      PTSUNNY   77  72  84 VRB5      30.07R
HOPKINSVILLE   PTSUNNY   84  73  71 N8        30.10R HX  90
BOWLING GREEN  CLOUDY    86  71  60 NW6       30.10R HX  91
GLASGOW        SUNNY     83  71  65 NW5       30.10S
$$

KYZ024-025-028>034-038-045-046-053-231600-
NORTH CENTRAL KENTUCKY

CITY           SKY/WX    TMP DP  RH WIND       PRES   REMARKS
LOUISVILLE/SDF CLOUDY    82  70  66 SW6       30.08R
LOUISVILLE/LOU PTSUNNY   83  69  62 W7        30.08R
FORT KNOX      CLOUDY    79  73  82 W1        30.09R
$$

KYZ035>037-039>044-047>052-055>060-089>105-231600-
NORTHEAST KENTUCKY

CITY           SKY/WX    TMP DP  RH WIND       PRES   REMARKS
LEXINGTON      MOSUNNY   83  70  64 VRB3      30.09F
COVINGTON      LGT RAIN  73  67  81 W7        30.05R
FRANKFORT      PTSUNNY   81  69  67 E7        30.07F
$$

KYZ054-064>069-076>088-106>120-231600-
SOUTHEAST KENTUCKY

CITY           SKY/WX    TMP DP  RH WIND       PRES   REMARKS
JACKSON        PTSUNNY   80  70  71 VRB5      30.10F
LONDON         MOSUNNY   83  71  67 W6        30.11F
SOMERSET       PTSUNNY   81  72  74 SW5       30.11F
MIDDLESBORO    PTSUNNY   78  72  80 CALM      30.12F
MONTICELLO     SUNNY     85  75  71 VRB5      30.12S HX  93
$$



USA.gov is the U.S. government's official web portal to all federal, state and local government web resources and services.